User: anonymous   Login
Location: Prairie State College
(41.5244°N, 87.6382°W)
Time: 15:22:34
(UTC-05:00)
Language:

Cosmos 1140 Rocket - Orbit

View from above orbital plane
View from above orbital plane
View from above satellite
View from above satellite

Ground track
Ground track

The orbit data is extracted from the following two-line orbital elements,

1 11574U 79089B   17230.21321824  .00000006  00000-0  10128-4 0  9999
2 11574  74.0692 104.5584 0015989 350.0010  10.0825 14.40633740986074
Epoch (UTC): 18 August 2017 05:07:02
Eccentricity: 0.0015989
inclination: 74.0692°
perigee height: 745 km
apogee height: 768 km
right ascension of ascending node: 104.5584°
argument of perigee: 350.0010°
revolutions per day: 14.40633740
mean anomaly at epoch: 10.0825°
orbit number at epoch: 98607

The dashed part of the orbit path shows where the satellite is in the earth's shadow,  

DLR